When you browse on this site, cookies collect data to enhance your experience and personalize the content and advertising you see.
Visit our Privacy Policy to learn more. By continuing to use the site, you agree to this use of cookies and data.

Hourly Weather Le Plessis-Trevise

Today, 9 August, Sunday

Time Temperature Precipitation Wind Pressure Humidity
00:00 +28°C° 0 mm 2 mps 755 mmHg 45%
01:00 +27°C° 0 mm 2 mps 755 mmHg 47%
02:00 +27°C° 0 mm 1 mps 755 mmHg 50%
03:00 +26°C° 0 mm 1 mps 755 mmHg 53%
04:00 +26°C° 0.1 mm 1 mps 755 mmHg 55%
05:00 +26°C° 0.1 mm 1 mps 755 mmHg 56%
06:00 +26°C° 0.1 mm 1 mps 755 mmHg 58%
07:00 +28°C° 0.1 mm 2 mps 755 mmHg 54%
08:00 +30°C° 0.1 mm 2 mps 755 mmHg 50%
09:00 +31°C° 0.1 mm 2 mps 755 mmHg 46%
10:00 +34°C° 0 mm 2 mps 755 mmHg 41%
11:00 +36°C° 0 mm 2 mps 754 mmHg 35%
12:00 +38°C° 0 mm 2 mps 754 mmHg 30%
13:00 +39°C° 0 mm 2 mps 754 mmHg 28%
14:00 +39°C° 0 mm 2 mps 753 mmHg 27%
15:00 +40°C° 0 mm 2 mps 753 mmHg 25%
16:00 +39°C° 0.1 mm 2 mps 753 mmHg 28%
17:00 +38°C° 0.1 mm 2 mps 752 mmHg 30%
18:00 +36°C° 0.1 mm 2 mps 752 mmHg 33%
19:00 +34°C° 0.5 mm 2 mps 752 mmHg 40%
20:00 +31°C° 0.5 mm 3 mps 753 mmHg 46%
21:00 +29°C° 0.5 mm 3 mps 753 mmHg 53%
22:00 +28°C° 0.5 mm 3 mps 753 mmHg 60%
23:00 +27°C° 0.5 mm 3 mps 753 mmHg 67%

Tomorrow, 10 August, Monday

Time Temperature Precipitation Wind Pressure Humidity
00:00 +25°C° 0.5 mm 3 mps 753 mmHg 74%
01:00 +25°C° 0 mm 2 mps 753 mmHg 74%
02:00 +25°C° 0 mm 2 mps 753 mmHg 74%
03:00 +25°C° 0 mm 2 mps 752 mmHg 74%
04:00 +25°C° 0 mm 2 mps 753 mmHg 74%
05:00 +25°C° 0 mm 1 mps 753 mmHg 75%
06:00 +25°C° 0 mm 1 mps 753 mmHg 75%
07:00 +27°C° 0 mm 1 mps 753 mmHg 68%
08:00 +29°C° 0 mm 1 mps 753 mmHg 60%
09:00 +30°C° 0 mm 1 mps 753 mmHg 52%
10:00 +32°C° 0 mm 1 mps 753 mmHg 47%
11:00 +34°C° 0 mm 1 mps 753 mmHg 41%
12:00 +36°C° 0 mm 1 mps 753 mmHg 36%
13:00 +36°C° 0 mm 1 mps 753 mmHg 34%
14:00 +36°C° 0 mm 1 mps 753 mmHg 32%
15:00 +37°C° 0 mm 1 mps 752 mmHg 30%
16:00 +36°C° 0 mm 1 mps 752 mmHg 32%
17:00 +37°C° 0 mm 2 mps 752 mmHg 34%
18:00 +36°C° 0 mm 2 mps 752 mmHg 36%
19:00 +34°C° 0.1 mm 2 mps 752 mmHg 39%
20:00 +31°C° 0.1 mm 2 mps 752 mmHg 43%
21:00 +30°C° 0.1 mm 1 mps 753 mmHg 47%
22:00 +29°C° 0 mm 1 mps 753 mmHg 48%
23:00 +28°C° 0 mm 1 mps 753 mmHg 50%

Day after tomorrow, 11 August, Tuesday

Time Temperature Precipitation Wind Pressure Humidity
00:00 +28°C° 0 mm 1 mps 753 mmHg 52%
01:00 +27°C° 0 mm 1 mps 753 mmHg 54%
02:00 +27°C° 0 mm 1 mps 753 mmHg 56%
03:00 +26°C° 0 mm 1 mps 753 mmHg 58%
04:00 +26°C° 0 mm 1 mps 753 mmHg 59%
05:00 +26°C° 0 mm 1 mps 753 mmHg 59%
06:00 +27°C° 0 mm 1 mps 753 mmHg 60%
07:00 +29°C° 0 mm 1 mps 753 mmHg 53%
08:00 +31°C° 0 mm 1 mps 753 mmHg 47%
09:00 +34°C° 0 mm 2 mps 753 mmHg 41%
10:00 +35°C° 0 mm 2 mps 753 mmHg 37%
11:00 +36°C° 0 mm 1 mps 753 mmHg 33%
12:00 +39°C° 0 mm 1 mps 753 mmHg 29%
13:00 +39°C° 0 mm 1 mps 753 mmHg 27%
14:00 +39°C° 0 mm 1 mps 753 mmHg 25%
15:00 +40°C° 0 mm 1 mps 752 mmHg 24%
16:00 +39°C° 0.1 mm 1 mps 752 mmHg 26%
17:00 +37°C° 0.1 mm 1 mps 752 mmHg 28%
18:00 +36°C° 0.1 mm 1 mps 752 mmHg 29%
19:00 +34°C° 0.7 mm 1 mps 752 mmHg 35%
20:00 +32°C° 0.7 mm 1 mps 752 mmHg 41%
21:00 +30°C° 0.7 mm 1 mps 753 mmHg 46%
22:00 +29°C° 0.4 mm 1 mps 753 mmHg 51%
23:00 +28°C° 0.4 mm 1 mps 753 mmHg 55%

12 August, Wednesday

Time Temperature Precipitation Wind Pressure Humidity
00:00 +27°C° 0.4 mm 1 mps 753 mmHg 59%
01:00 +27°C° 0 mm 1 mps 752 mmHg 61%
02:00 +26°C° 0 mm 1 mps 752 mmHg 63%
03:00 +26°C° 0 mm 1 mps 752 mmHg 64%
04:00 +26°C° 0.1 mm 1 mps 752 mmHg 66%
05:00 +26°C° 0.1 mm 1 mps 752 mmHg 67%
06:00 +26°C° 0.1 mm 2 mps 752 mmHg 68%
07:00 +27°C° 0 mm 2 mps 752 mmHg 61%
08:00 +29°C° 0 mm 2 mps 752 mmHg 54%
09:00 +31°C° 0 mm 2 mps 752 mmHg 47%
10:00 +34°C° 0 mm 2 mps 752 mmHg 43%
11:00 +35°C° 0 mm 2 mps 752 mmHg 38%
12:00 +37°C° 0 mm 3 mps 752 mmHg 33%
13:00 +37°C° 0 mm 2 mps 751 mmHg 32%
14:00 +38°C° 0 mm 2 mps 751 mmHg 30%
15:00 +38°C° 0 mm 2 mps 751 mmHg 28%
16:00 +38°C° 0 mm 2 mps 751 mmHg 30%
17:00 +37°C° 0 mm 2 mps 751 mmHg 32%
18:00 +36°C° 0 mm 2 mps 751 mmHg 34%
19:00 +33°C° 1 mm 3 mps 751 mmHg 48%
20:00 +28°C° 1 mm 3 mps 751 mmHg 61%
21:00 +25°C° 1 mm 4 mps 751 mmHg 75%
22:00 +25°C° 0.6 mm 4 mps 751 mmHg 78%
23:00 +23°C° 0.6 mm 4 mps 751 mmHg 80%

13 August, Thursday

Time Temperature Precipitation Wind Pressure Humidity
00:00 +23°C° 0.6 mm 4 mps 751 mmHg 83%
01:00 +23°C° 0.1 mm 4 mps 751 mmHg 83%
02:00 +22°C° 0.1 mm 3 mps 751 mmHg 84%
03:00 +21°C° 0.1 mm 3 mps 750 mmHg 85%
04:00 +21°C° 0.6 mm 4 mps 751 mmHg 84%
05:00 +21°C° 0.6 mm 4 mps 751 mmHg 84%
06:00 +21°C° 0.6 mm 4 mps 751 mmHg 84%
07:00 +22°C° 0 mm 5 mps 751 mmHg 79%
08:00 +23°C° 0 mm 5 mps 751 mmHg 74%
09:00 +25°C° 0 mm 5 mps 751 mmHg 69%
10:00 +25°C° 0.1 mm 5 mps 751 mmHg 65%
11:00 +26°C° 0.1 mm 6 mps 751 mmHg 61%
12:00 +27°C° 0.1 mm 6 mps 751 mmHg 56%
13:00 +27°C° 0.1 mm 6 mps 750 mmHg 55%
14:00 +27°C° 0.1 mm 6 mps 750 mmHg 54%
15:00 +27°C° 0.1 mm 5 mps 750 mmHg 53%
16:00 +27°C° 0 mm 5 mps 750 mmHg 54%
17:00 +27°C° 0 mm 5 mps 750 mmHg 56%
18:00 +26°C° 0 mm 5 mps 750 mmHg 58%
19:00 +25°C° 0.5 mm 5 mps 750 mmHg 66%
20:00 +23°C° 0.5 mm 5 mps 750 mmHg 73%
21:00 +22°C° 0.5 mm 4 mps 750 mmHg 80%
22:00 +21°C° 0.2 mm 5 mps 751 mmHg 82%
23:00 +20°C° 0.2 mm 5 mps 751 mmHg 83%

14 August, Friday

Time Temperature Precipitation Wind Pressure Humidity
00:00 +20°C° 0.2 mm 5 mps 751 mmHg 84%
01:00 +19°C° 0.1 mm 5 mps 751 mmHg 83%
02:00 +19°C° 0.1 mm 4 mps 751 mmHg 82%
03:00 +18°C° 0.1 mm 4 mps 752 mmHg 80%
04:00 +18°C° 0.1 mm 4 mps 752 mmHg 80%
05:00 +18°C° 0.1 mm 4 mps 752 mmHg 80%
06:00 +17°C° 0.1 mm 3 mps 753 mmHg 79%
07:00 +18°C° 0 mm 4 mps 753 mmHg 75%
08:00 +18°C° 0 mm 4 mps 754 mmHg 71%
09:00 +19°C° 0 mm 4 mps 754 mmHg 67%
10:00 +20°C° 0 mm 3 mps 754 mmHg 60%
11:00 +21°C° 0 mm 3 mps 754 mmHg 53%
12:00 +22°C° 0 mm 3 mps 754 mmHg 46%
13:00 +24°C° 0 mm 3 mps 754 mmHg 46%
14:00 +24°C° 0 mm 3 mps 754 mmHg 46%
15:00 +24°C° 0 mm 3 mps 753 mmHg 46%
16:00 +22°C° 0.1 mm 3 mps 753 mmHg 50%
17:00 +23°C° 0.1 mm 2 mps 753 mmHg 54%
18:00 +21°C° 0.1 mm 2 mps 753 mmHg 58%
19:00 +20°C° 0 mm 2 mps 754 mmHg 61%
20:00 +19°C° 0 mm 2 mps 754 mmHg 64%
21:00 +19°C° 0 mm 2 mps 754 mmHg 67%
22:00 +18°C° 0 mm 2 mps 754 mmHg 69%
23:00 +19°C° 0 mm 1 mps 754 mmHg 70%
Show more